Location: Hawaiian Village Mobile Home Park
(32.8359°N, 116.9792°W)
Time: 02:54:54
(UTC+00:00)

ADEOS - Pass Details

Date: 03 December 2021
Orbit: 792 x 795 km, 98.9° (Epoch: 23 January)

Event Time Altitude Azimuth Distance (km) Brightness Sun altitude
Rises 01:01:54 0° 183° (S) 3,278 7.2 -4.8°
Reaches altitude 10° 01:04:20 10° 190° (S) 2,353 6.5 -5.2°
Maximum altitude 01:09:13 41° 260° (W) 1,136 5.1 -6.2°
Drops below altitude 10° 01:14:08 10° 331° (NNW) 2,367 6.1 -7.1°
Sets 01:16:36 0° 338° (NNW) 3,301 6.8 -7.6°
